Regional Weather Roundup
Issued by NWS

Home | Current Version | Previous Version | Graphics & Text | Print | Product List | Glossary On
Versions: 1 2 3 4 5 6 7 8 9 10 11 12 13 14 15 16 17 18 19 20 21 22 23 24 25 26 27 28 29 30 31 32 33 34 35 36 37 38 39 40 41 42 43 44 45 46 47 48 49 50
000
ASUS45 KBOI 211610
RWRID

IDAHO REGIONAL WEATHER ROUNDUP
NATIONAL WEATHER SERVICE BOISE ID
1000 AM MDT THU MAY 21 2015

NOTE: "FAIR" INDICATES FEW OR NO CLOUDS BELOW 12000 FEET
WITH NO SIGNIFICANT WEATHER AND/OR OBSTRUCTIONS TO VISIBILITY

IDZ012-014-211700-
SOUTHWEST IDAHO


CITY           SKY/WX    TMP DP  RH WIND       PRES   REMARKS
BOISE          SUNNY     63  49  60 CALM      29.92F
CALDWELL       SUNNY     63  46  55 NE5       29.94S
MOUNTAIN HOME  CLOUDY    63  47  55 E18       29.93S
$$

IDZ016-017-211700-
SOUTHCENTRAL IDAHO


CITY           SKY/WX    TMP DP  RH WIND       PRES   REMARKS
BURLEY         MOSUNNY   58  47  66 E3        29.97F
JEROME         MOSUNNY   59  48  67 NE9       29.98S
TWIN FALLS     MOSUNNY   60  45  57 N6        29.95S
$$

IDZ019>023-211700-
SOUTHEAST IDAHO


CITY           SKY/WX    TMP DP  RH WIND       PRES   REMARKS
IDAHO FALLS    CLOUDY    57  43  59 N3        30.04F
POCATELLO      PTSUNNY   53  48  83 E8        30.02F
REXBURG        MOSUNNY   55  45  68 NE6       30.05F
$$

IDZ006-010-011-018-031-032-211700-
CENTRAL IDAHO MOUNTAINS


CITY           SKY/WX    TMP DP  RH WIND       PRES   REMARKS
MCCALL         CLOUDY    51  47  86 NE3       29.99S
HAILEY         PTSUNNY   52  45  76 NW7       30.04
STANLEY          N/A     47  41  80 CALM      30.05F
SALMON         CLOUDY    57  43  58 CALM      29.99F
CHALLIS        PTSUNNY   55  41  59 CALM      30.01F
$$

IDZ002-004-006-007-026-211700-
NORTHERN IDAHO


CITY           SKY/WX    TMP DP  RH WIND       PRES   REMARKS
LEWISTON       PTSUNNY   67  53  61 N6        29.89S
LOWELL           N/A     58  47  66 CALM      29.92F
COEUR D`ALENE  SUNNY    N/A N/A N/A MISG        N/A
MULLAN PASS    SUNNY     54  32  43 SE8       30.03R
$$



USA.gov is the U.S. government's official web portal to all federal, state and local government web resources and services.